[[{"header":{"parameterUnit":"m.s-1","parameterCategory":1,"la1":30.2991,"la2":30.254,"lo1":-89.0895,"lo2":-89.0444,"dy":0.0017,"dx":0.0017,"nx":28,"ny":28,"refTime":"2023-09-15T03:00:00:Z","depth":0,"parameterNumber":2,"parameterNumberName":"U-component_of_WINDS"},"data":[0,0,0,0,0,0,0,0,0,0,0,0,0,0,0,0,0,0,0,0,0,0,0,0,0,0,0,0,0,0,0,0,0,0,0,0,0,0,0,0,0,0,0,0,0,0,0,0,0,0,0,0,0,0,0,0,0,0,-0.0389,-0.0389,0,-0.0446,-0.0446,-0.0447,-0.0523,-0.0524,-0.0525,-0.0526,-0.0579,-0.058,-0.058,0,0,0,0,0,0,0,0,0,0,0,0,0,-0.0341,-0.0341,-0.0389,-0.039,-0.039,-0.0446,-0.0446,-0.0447,-0.0522,-0.0524,-0.0525,-0.0527,-0.0579,-0.0579,-0.058,0,0,0,0,0,0,0,0,0,0,0,0,0,-0.0376,-0.0342,-0.0389,-0.0435,-0.0439,-0.0445,-0.0446,-0.0447,-0.0522,-0.0524,-0.0526,-0.0528,-0.0579,-0.0579,-0.058,-0.0544,0,0,-0.0581,-0.0581,0,0,0,0,0,0,0,0,-0.0374,-0.0378,-0.0427,-0.0431,-0.0437,-0.0479,-0.0449,-0.048,-0.0521,-0.049,-0.0526,-0.0528,-0.0544,-0.0547,-0.0554,-0.0546,-0.0549,-0.0581,-0.0581,-0.0581,-0.0581,0,0,0,0,0,0,0,-0.0371,-0.0376,-0.0411,-0.0428,-0.0434,-0.0451,-0.0458,-0.0455,-0.0506,-0.0493,-0.0499,-0.0505,-0.0547,-0.0553,-0.0556,-0.055,-0.0581,-0.0581,-0.0581,-0.0582,-0.0515,-0.0513,0,0,0,0,0,0,-0.0363,-0.0373,-0.0409,-0.0413,-0.041,-0.045,-0.0458,-0.0463,-0.0506,-0.0514,-0.0503,-0.0508,-0.0552,-0.0555,-0.0558,-0.0518,-0.0581,-0.0582,-0.0582,-0.0517,-0.0515,-0.0513,0,0,0,0,0,0,-0.0361,-0.0365,-0.0407,-0.0395,-0.0401,-0.0449,-0.0454,-0.0464,-0.047,-0.0514,-0.0522,-0.05,-0.0553,-0.0557,-0.0547,-0.0521,-0.0582,-0.0582,-0.0519,-0.0516,-0.0514,-0.0438,0,0,0,0,0,0,-0.036,-0.0364,-0.0352,-0.0394,-0.0402,-0.0397,-0.0453,-0.0463,-0.0471,-0.0478,-0.0513,-0.0521,-0.0555,-0.0546,-0.0547,-0.0522,-0.0582,-0.0522,-0.0518,-0.0515,-0.0443,-0.0433,-0.0425,0,0,0,0,0,-0.0358,-0.0328,-0.0351,-0.0355,-0.0388,-0.0395,-0.0399,-0.0441,-0.0469,-0.0456,-0.0484,-0.052,-0.0524,-0.0544,-0.0547,-0.0521,-0.0524,-0.0519,-0.0515,-0.0448,-0.0435,-0.0425,0,0,0,0,0,0,-0.028,-0.0334,-0.0361,-0.0344,-0.0364,-0.0408,-0.0393,-0.0426,-0.0438,-0.0444,-0.0493,-0.05,-0.0484,-0.0502,-0.0524,-0.0489,-0.0529,-0.0525,-0.0477,-0.0466,-0.0457,-0.0452,-0.0583,0,0,0,0,0,-0.0261,-0.0264,-0.0311,-0.0291,-0.03,-0.0345,-0.0349,-0.038,-0.0402,-0.0411,-0.0438,-0.0458,-0.0463,-0.0466,-0.0474,-0.0447,-0.0455,-0.0431,-0.0421,-0.0413,-0.0408,-0.0395,-0.0384,-0.0498,-0.0498,-0.0498,0,0,-0.0221,-0.0251,-0.025,-0.0276,-0.0296,-0.0296,-0.0351,-0.035,-0.035,-0.041,-0.0403,-0.0423,-0.0448,-0.0429,-0.0422,-0.0444,-0.0379,-0.0407,-0.0401,-0.04,-0.0389,-0.0378,-0.0368,-0.0495,-0.0495,-0.0496,0,0,-0.0149,-0.0173,-0.0159,-0.0178,-0.0208,-0.0238,-0.0234,-0.0273,-0.029,-0.0283,-0.0328,-0.0329,-0.0338,-0.0354,-0.0363,-0.0297,-0.033,-0.0298,-0.0248,-0.0234,-0.0225,-0.0217,-0.0193,-0.0183,-0.0294,-0.0293,-0.0293,0,-0.0095,-0.0099,-0.0147,-0.0143,-0.0152,-0.0209,-0.0194,-0.021,-0.0239,-0.0244,-0.0268,-0.0281,-0.0302,-0.0287,-0.0271,-0.0277,-0.0273,-0.0294,-0.0223,-0.0216,-0.0209,-0.0186,-0.0177,-0.0289,-0.029,-0.029,-0.0291,0,-0.0031,-0.0033,-0.0018,-0.0048,-0.0056,-0.0046,-0.009,-0.0093,-0.0122,-0.0149,-0.0141,-0.0169,-0.0183,-0.0182,-0.021,-0.0171,-0.0183,-0.0214,-0.0256,-0.0193,-0.0172,-0.0164,-0.0283,-0.0285,-0.0286,-0.0287,0,0,0.009,0.0033,0.004,0.0026,-0.0012,-0.0013,-0.0006,-0.0022,-0.0022,-0.0041,-0.0034,-0.0041,-0.0071,-0.0081,-0.0112,-0.01,-0.0045,-0.0132,-0.0134,-0.0114,-0.0002,0.0023,0.0034,-0.0067,-0.0066,-0.0065,0.0001,0,0.0156,0.0164,0.0122,0.0142,0.014,0.0085,0.0092,0.0071,0.0046,0.0042,0.0014,0.0011,-0.0029,-0.0035,-0.0026,-0.0053,-0.0022,-0.0059,-0.006,-0.006,-0.0051,0.0045,0.0071,0.0135,0.0009,0.001,0.0011,0,0.0235,0.0219,0.0238,0.0199,0.0197,0.0204,0.0186,0.0182,0.0157,0.0138,0.0126,0.009,0.0097,0.0056,0.0064,0.0041,0.0037,0.0024,0.0025,0.0025,-0.0019,0.0049,0.0154,0.0164,0.0023,0.0022,0.0021,0,0.0323,0.0306,0.0316,0.0305,0.026,0.0266,0.0248,0.022,0.0214,0.0199,0.0195,0.0181,0.0175,0.0166,0.0128,0.0101,0.0142,0.0097,0.0128,0.0129,0.014,0.014,0.0248,0.0136,0.0135,0.0135,0.0135,0,0.0403,0.0418,0.0354,0.0361,0.0376,0.0327,0.0343,0.032,0.0296,0.0298,0.025,0.0253,0.0202,0.0199,0.017,0.0182,0.0179,0.0165,0.0158,0.0171,0.0173,0.0169,0.0164,0.0138,0.0137,0.0137,0.0136,0,0.0505,0.0463,0.047,0.0426,0.0415,0.0428,0.0391,0.0396,0.0367,0.037,0.0368,0.0323,0.0318,0.0279,0.0265,0.0245,0.027,0.0253,0.0278,0.0273,0.0306,0.0304,0.0416,0.0429,0.0308,0.0309,0.031,0,0.0559,0.0569,0.0525,0.0522,0.0505,0.0501,0.0493,0.0446,0.044,0.0412,0.0421,0.0411,0.0401,0.0396,0.0363,0.0353,0.0336,0.0376,0.0335,0.0347,0.0339,0.0339,0.034,0.0386,0.0387,0.0389,0.039,0,0.0661,0.0639,0.0629,0.0612,0.0604,0.0589,0.0571,0.0572,0.0519,0.0515,0.0508,0.0501,0.0486,0.0478,0.0461,0.0444,0.0409,0.0403,0.0409,0.0424,0.0438,0.0432,0.0304,0.0401,0.04,0.0399,0.0398,0.0398,0.0741,0.0747,0.0717,0.0708,0.0689,0.0673,0.0675,0.0646,0.0639,0.0622,0.0594,0.0592,0.0567,0.0541,0.0526,0.0525,0.0504,0.0514,0.0516,0.052,0.0527,0.0437,0.0522,0.0521,0.0521,0.052,0.052,0,0.0841,0.0819,0.081,0.0786,0.0779,0.0743,0.0722,0.0719,0.0717,0.0695,0.0686,0.0678,0.067,0.0636,0.0625,0.063,0.0614,0.0629,0.0629,0.0626,0.0546,0.0541,0.0642,0.0642,0.0642,0.0642,0.0642,0.0642,0.0893,0.0901,0.0876,0.0875,0.0853,0.0848,0.0839,0.0825,0.0807,0.0801,0.0793,0.077,0.0744,0.073,0.0722,0.0712,0.0711,0.0732,0.0717,0.0643,0.0631,0.062,0.0616,0.0731,0.0731,0.0798,0.0798,0.0799]},{"header":{"parameterUnit":"m.s-1","parameterCategory":1,"la1":30.2991,"la2":30.254,"lo1":-89.0895,"lo2":-89.0444,"dy":0.0017,"dx":0.0017,"nx":28,"ny":28,"refTime":"2023-09-15T03:00:00:Z","depth":0,"parameterNumber":3,"parameterNumberName":"V-component_of_WINDS"},"data":[0,0,0,0,0,0,0,0,0,0,0,0,0,0,0,0,0,0,0,0,0,0,0,0,0,0,0,0,0,0,0,0,0,0,0,0,0,0,0,0,0,0,0,0,0,0,0,0,0,0,0,0,0,0,0,0,0,0,-0.6859,-0.6859,0,-0.6879,-0.6879,-0.6879,-0.6906,-0.6906,-0.6907,-0.6907,-0.6926,-0.6926,-0.6926,0,0,0,0,0,0,0,0,0,0,0,0,0,-0.6843,-0.6843,-0.6859,-0.6859,-0.686,-0.6879,-0.6879,-0.6879,-0.6906,-0.6906,-0.6907,-0.6908,-0.6926,-0.6926,-0.6926,0,0,0,0,0,0,0,0,0,0,0,0,0,-0.6855,-0.6843,-0.6859,-0.6875,-0.6877,-0.6879,-0.6879,-0.6879,-0.6906,-0.6906,-0.6907,-0.6908,-0.6926,-0.6926,-0.6926,-0.6913,0,0,-0.6926,-0.6926,0,0,0,0,0,0,0,0,-0.6854,-0.6855,-0.6873,-0.6874,-0.6876,-0.6891,-0.688,-0.6891,-0.6906,-0.6895,-0.6907,-0.6908,-0.6913,-0.6915,-0.6917,-0.6914,-0.6915,-0.6926,-0.6926,-0.6926,-0.6926,0,0,0,0,0,0,0,-0.6853,-0.6855,-0.6867,-0.6873,-0.6875,-0.6881,-0.6883,-0.6882,-0.69,-0.6896,-0.6898,-0.69,-0.6914,-0.6917,-0.6917,-0.6915,-0.6926,-0.6926,-0.6926,-0.6926,-0.6902,-0.6901,0,0,0,0,0,0,-0.685,-0.6854,-0.6866,-0.6867,-0.6867,-0.6881,-0.6883,-0.6885,-0.69,-0.6903,-0.6899,-0.6901,-0.6916,-0.6917,-0.6918,-0.6904,-0.6926,-0.6926,-0.6927,-0.6902,-0.6901,-0.6901,0,0,0,0,0,0,-0.685,-0.6851,-0.6865,-0.6861,-0.6863,-0.688,-0.6882,-0.6885,-0.6887,-0.6903,-0.6906,-0.6898,-0.6917,-0.6918,-0.6914,-0.6905,-0.6927,-0.6927,-0.6903,-0.6902,-0.6901,-0.6874,0,0,0,0,0,0,-0.6849,-0.6851,-0.6846,-0.6861,-0.6864,-0.6861,-0.6881,-0.6885,-0.6888,-0.689,-0.6903,-0.6905,-0.6917,-0.6914,-0.6914,-0.6905,-0.6927,-0.6904,-0.6903,-0.6901,-0.6876,-0.6873,-0.6869,0,0,0,0,0,-0.6849,-0.6838,-0.6846,-0.6847,-0.6859,-0.6861,-0.6862,-0.6877,-0.6887,-0.6882,-0.6892,-0.6905,-0.6906,-0.6913,-0.6914,-0.6905,-0.6905,-0.6903,-0.6902,-0.6878,-0.6873,-0.6869,0,0,0,0,0,0,-0.6821,-0.684,-0.6849,-0.6843,-0.685,-0.6865,-0.686,-0.6872,-0.6876,-0.6878,-0.6895,-0.6898,-0.6891,-0.6898,-0.6906,-0.6893,-0.6907,-0.6905,-0.6889,-0.6885,-0.6881,-0.688,-0.6927,0,0,0,0,0,-0.6815,-0.6816,-0.6832,-0.6825,-0.6828,-0.6843,-0.6845,-0.6855,-0.6863,-0.6866,-0.6876,-0.6882,-0.6884,-0.6885,-0.6887,-0.6877,-0.688,-0.6871,-0.6868,-0.6865,-0.6863,-0.6858,-0.6854,-0.6895,-0.6895,-0.6895,0,0,-0.6801,-0.6811,-0.6811,-0.6819,-0.6826,-0.6826,-0.6846,-0.6845,-0.6845,-0.6866,-0.6863,-0.687,-0.6878,-0.6871,-0.6869,-0.6876,-0.6853,-0.6863,-0.686,-0.686,-0.6856,-0.6852,-0.6849,-0.6894,-0.6894,-0.6895,0,0,-0.6776,-0.6784,-0.6779,-0.6785,-0.6795,-0.6806,-0.6804,-0.6817,-0.6823,-0.682,-0.6836,-0.6836,-0.6839,-0.6844,-0.6847,-0.6823,-0.6835,-0.6823,-0.6806,-0.68,-0.6797,-0.6794,-0.6785,-0.6782,-0.6822,-0.6822,-0.6822,0,-0.6757,-0.6758,-0.6774,-0.6773,-0.6776,-0.6795,-0.679,-0.6795,-0.6805,-0.6806,-0.6815,-0.6819,-0.6826,-0.682,-0.6814,-0.6816,-0.6815,-0.6822,-0.6796,-0.6794,-0.6791,-0.6783,-0.678,-0.682,-0.682,-0.6821,-0.6821,0,-0.6734,-0.6735,-0.6729,-0.6739,-0.6742,-0.6738,-0.6753,-0.6753,-0.6764,-0.6773,-0.6769,-0.6779,-0.6783,-0.6782,-0.6792,-0.6778,-0.6782,-0.6793,-0.6808,-0.6786,-0.6778,-0.6775,-0.6818,-0.6819,-0.6819,-0.6819,0,0,-0.6693,-0.6711,-0.6709,-0.6714,-0.6726,-0.6726,-0.6723,-0.6728,-0.6728,-0.6734,-0.6731,-0.6733,-0.6743,-0.6746,-0.6757,-0.6752,-0.6732,-0.6764,-0.6764,-0.6758,-0.6717,-0.6708,-0.6704,-0.674,-0.674,-0.6739,-0.6716,0,-0.6669,-0.6666,-0.668,-0.6672,-0.6673,-0.6691,-0.6688,-0.6695,-0.6704,-0.6705,-0.6714,-0.6714,-0.6728,-0.673,-0.6726,-0.6736,-0.6724,-0.6738,-0.6738,-0.6737,-0.6735,-0.67,-0.6691,-0.6669,-0.6713,-0.6712,-0.6712,0,-0.6642,-0.6647,-0.6639,-0.6652,-0.6653,-0.665,-0.6655,-0.6656,-0.6664,-0.667,-0.6674,-0.6686,-0.6683,-0.6698,-0.6694,-0.6702,-0.6703,-0.6708,-0.6707,-0.6707,-0.6723,-0.6699,-0.6662,-0.6658,-0.6708,-0.6708,-0.6708,0,-0.6612,-0.6617,-0.6613,-0.6616,-0.6631,-0.6628,-0.6634,-0.6643,-0.6645,-0.6649,-0.665,-0.6654,-0.6656,-0.6658,-0.6671,-0.6681,-0.6665,-0.6681,-0.667,-0.667,-0.6666,-0.6666,-0.6627,-0.6667,-0.6667,-0.6667,-0.6667,0,-0.6584,-0.6578,-0.6599,-0.6597,-0.6591,-0.6607,-0.6601,-0.6608,-0.6616,-0.6615,-0.6631,-0.6629,-0.6646,-0.6647,-0.6656,-0.6651,-0.6652,-0.6657,-0.6659,-0.6655,-0.6654,-0.6656,-0.6658,-0.6666,-0.6666,-0.6666,-0.6666,0,-0.6549,-0.6563,-0.656,-0.6574,-0.6577,-0.6572,-0.6584,-0.6582,-0.6592,-0.659,-0.659,-0.6605,-0.6606,-0.6619,-0.6622,-0.6629,-0.662,-0.6625,-0.6617,-0.6619,-0.6607,-0.6608,-0.6568,-0.6563,-0.6606,-0.6605,-0.6605,0,-0.653,-0.6527,-0.6541,-0.6541,-0.6547,-0.6547,-0.6549,-0.6565,-0.6567,-0.6575,-0.6572,-0.6574,-0.6577,-0.6577,-0.6588,-0.6591,-0.6596,-0.6582,-0.6597,-0.6593,-0.6596,-0.6596,-0.6595,-0.6579,-0.6578,-0.6578,-0.6578,0,-0.6496,-0.6503,-0.6506,-0.651,-0.6513,-0.6517,-0.6522,-0.6522,-0.6539,-0.654,-0.6541,-0.6543,-0.6547,-0.6549,-0.6553,-0.6559,-0.6571,-0.6573,-0.657,-0.6566,-0.6561,-0.6563,-0.6608,-0.6574,-0.6574,-0.6574,-0.6575,-0.6575,-0.6468,-0.6466,-0.6475,-0.6477,-0.6483,-0.6488,-0.6487,-0.6496,-0.6498,-0.6502,-0.6511,-0.6511,-0.6519,-0.6526,-0.6531,-0.653,-0.6538,-0.6534,-0.6533,-0.6532,-0.653,-0.6561,-0.6531,-0.6531,-0.6531,-0.6532,-0.6532,0,-0.6434,-0.6441,-0.6443,-0.6451,-0.6452,-0.6464,-0.647,-0.6471,-0.6471,-0.6477,-0.6479,-0.6481,-0.6483,-0.6493,-0.6496,-0.6494,-0.6499,-0.6494,-0.6494,-0.6495,-0.6523,-0.6525,-0.6489,-0.6489,-0.6489,-0.6489,-0.6489,-0.6489,-0.6417,-0.6413,-0.6421,-0.642,-0.6427,-0.6427,-0.643,-0.6434,-0.6439,-0.644,-0.6442,-0.6449,-0.6457,-0.6461,-0.6463,-0.6466,-0.6466,-0.6458,-0.6463,-0.6489,-0.6493,-0.6497,-0.6499,-0.6458,-0.6458,-0.6435,-0.6435,-0.6435]}]]